N259BD KCOS-KCOS

Flight info

Callsign N259BD
Flight time 0h 46m
Altitude VFR
Route PRACTICE APCH /FFS/
Aircraft C172/L-VGD/C

Departure

Time 2026-04-12 04:13
Airport City of Colorado Springs Municipal Airport (KCOS)

Arrival

Time 2026-04-12 04:59
Airport City of Colorado Springs Municipal Airport (KCOS)
Time Latitude Longitude Altitude Speed Heading
2026-04-12 03:57 38.80016 -104.69840 6188 ft 0 kts 269°
2026-04-12 04:04 38.80016 -104.69851 6188 ft 6 kts 270°
2026-04-12 04:04 38.80035 -104.69962 6188 ft 19 kts 287°
2026-04-12 04:04 38.80058 -104.70144 6188 ft 21 kts 276°
2026-04-12 04:05 38.80068 -104.70320 6188 ft 18 kts 272°
2026-04-12 04:05 38.80096 -104.70470 6188 ft 16 kts 330°
2026-04-12 04:05 38.80187 -104.70429 6188 ft 14 kts
2026-04-12 04:05 38.80280 -104.70433 6188 ft 14 kts 352°
2026-04-12 04:06 38.80361 -104.70479 6188 ft 15 kts 280°
2026-04-12 04:06 38.80362 -104.70615 6188 ft 16 kts 270°
2026-04-12 04:06 38.80362 -104.70771 6188 ft 19 kts 270°
2026-04-12 04:06 38.80362 -104.70953 6188 ft 21 kts 269°
2026-04-12 04:07 38.80362 -104.71141 6188 ft 21 kts 269°
2026-04-12 04:07 38.80366 -104.71330 6188 ft 21 kts 287°
2026-04-12 04:07 38.80480 -104.71355 6188 ft 17 kts
2026-04-12 04:07 38.80601 -104.71348 6188 ft 18 kts
2026-04-12 04:08 38.80724 -104.71348 6189 ft 18 kts
2026-04-12 04:08 38.80863 -104.71350 6188 ft 23 kts 359°
2026-04-12 04:08 38.81037 -104.71352 6188 ft 27 kts 358°
2026-04-12 04:08 38.81240 -104.71347 6188 ft 30 kts
2026-04-12 04:09 38.81437 -104.71351 6188 ft 27 kts 359°
2026-04-12 04:09 38.81617 -104.71348 6188 ft 25 kts 360°
2026-04-12 04:09 38.81773 -104.71349 6188 ft 20 kts
2026-04-12 04:09 38.81896 -104.71347 6188 ft 8 kts
2026-04-12 04:10 38.81902 -104.71402 6188 ft 9 kts 252°
2026-04-12 04:10 38.81858 -104.71457 6188 ft 7 kts 210°
2026-04-12 04:10 38.81851 -104.71463 6188 ft 0 kts 210°
2026-04-12 04:11 38.81848 -104.71465 6188 ft 4 kts 209°
2026-04-12 04:12 38.81771 -104.71519 6187 ft 22 kts 207°
2026-04-12 04:12 38.81567 -104.71593 6187 ft 40 kts 183°
2026-04-12 04:12 38.81163 -104.71591 6189 ft 74 kts 179°
2026-04-12 04:12 38.80569 -104.71586 6206 ft 96 kts 177°
2026-04-12 04:13 38.79879 -104.71579 6297 ft 104 kts 182°
2026-04-12 04:13 38.79181 -104.71576 6538 ft 95 kts 178°
2026-04-12 04:13 38.78498 -104.71569 6652 ft 100 kts 178°
2026-04-12 04:13 38.77818 -104.71582 6867 ft 97 kts 182°
2026-04-12 04:14 38.77132 -104.71590 7016 ft 99 kts 179°
2026-04-12 04:14 38.76445 -104.71623 7198 ft 101 kts 186°
2026-04-12 04:14 38.75741 -104.71597 7311 ft 102 kts 163°
2026-04-12 04:14 38.75153 -104.71138 7419 ft 100 kts 129°
2026-04-12 04:15 38.74912 -104.70324 7480 ft 97 kts 89°
2026-04-12 04:15 38.74893 -104.69462 7572 ft 99 kts 94°
2026-04-12 04:15 38.74913 -104.68576 7647 ft 100 kts 84°
2026-04-12 04:15 38.74964 -104.67664 7701 ft 105 kts 90°
2026-04-12 04:16 38.74954 -104.66739 7800 ft 106 kts 91°
2026-04-12 04:16 38.75027 -104.65803 7952 ft 102 kts 88°
2026-04-12 04:16 38.75253 -104.64911 8015 ft 110 kts 57°
2026-04-12 04:16 38.75781 -104.64267 8165 ft 103 kts 21°
2026-04-12 04:17 38.76462 -104.63969 8276 ft 102 kts
2026-04-12 04:17 38.77146 -104.63754 8423 ft 103 kts 11°
2026-04-12 04:17 38.77815 -104.63472 8578 ft 100 kts
2026-04-12 04:17 38.78510 -104.63228 8651 ft 107 kts 10°
2026-04-12 04:18 38.79227 -104.62960 8722 ft 112 kts
2026-04-12 04:18 38.80007 -104.62723 8756 ft 119 kts
2026-04-12 04:18 38.80844 -104.62466 8745 ft 127 kts
2026-04-12 04:18 38.81688 -104.62151 8796 ft 126 kts 11°
2026-04-12 04:19 38.82538 -104.61808 8824 ft 129 kts 10°
2026-04-12 04:19 38.83408 -104.61575 8877 ft 126 kts
2026-04-12 04:19 38.84287 -104.61491 8868 ft 130 kts 356°
2026-04-12 04:19 38.85211 -104.61415 8827 ft 135 kts 359°
2026-04-12 04:20 38.86137 -104.61296 8840 ft 133 kts
2026-04-12 04:20 38.87060 -104.61190 8846 ft 134 kts 358°
2026-04-12 04:20 38.87987 -104.61115 8860 ft 133 kts 358°
2026-04-12 04:20 38.88891 -104.61043 8850 ft 132 kts 358°
2026-04-12 04:21 38.89804 -104.60988 8844 ft 130 kts 357°
2026-04-12 04:21 38.90711 -104.60955 8844 ft 131 kts 358°
2026-04-12 04:21 38.91622 -104.60857 8817 ft 131 kts
2026-04-12 04:21 38.92535 -104.60752 8784 ft 131 kts 359°
2026-04-12 04:22 38.93444 -104.60665 8762 ft 132 kts
2026-04-12 04:22 38.94364 -104.60594 8746 ft 132 kts 355°
2026-04-12 04:22 38.95266 -104.60539 8778 ft 129 kts 358°
2026-04-12 04:22 38.96165 -104.60459 8727 ft 133 kts 359°
2026-04-12 04:23 38.97076 -104.60384 8751 ft 130 kts 356°
2026-04-12 04:23 38.97924 -104.60617 8734 ft 122 kts 323°
2026-04-12 04:23 38.98422 -104.61408 8737 ft 112 kts 280°
2026-04-12 04:23 38.98576 -104.62379 8723 ft 112 kts 277°
2026-04-12 04:24 38.98730 -104.63369 8714 ft 112 kts 278°
2026-04-12 04:24 38.98863 -104.64330 8773 ft 107 kts 276°
2026-04-12 04:24 38.98992 -104.65284 8744 ft 110 kts 275°
2026-04-12 04:24 38.99091 -104.66259 8747 ft 109 kts 270°
2026-04-12 04:25 38.98913 -104.67171 8728 ft 108 kts 237°
2026-04-12 04:25 38.98332 -104.67766 8725 ft 111 kts 211°
2026-04-12 04:25 38.97632 -104.68179 8743 ft 111 kts 208°
2026-04-12 04:25 38.96905 -104.68540 8738 ft 113 kts 202°
2026-04-12 04:26 38.96117 -104.68607 8757 ft 116 kts 181°
2026-04-12 04:26 38.95308 -104.68478 8751 ft 118 kts 180°
2026-04-12 04:26 38.94498 -104.68363 8777 ft 116 kts 183°
2026-04-12 04:26 38.93689 -104.68359 8629 ft 120 kts 188°
2026-04-12 04:27 38.92865 -104.68440 8509 ft 118 kts 189°
2026-04-12 04:27 38.92042 -104.68465 8333 ft 119 kts 187°
2026-04-12 04:27 38.91228 -104.68530 8198 ft 119 kts 191°
2026-04-12 04:27 38.90410 -104.68602 8071 ft 118 kts 187°
2026-04-12 04:28 38.89571 -104.68614 7857 ft 122 kts 181°
2026-04-12 04:28 38.88730 -104.68586 7734 ft 118 kts 180°
2026-04-12 04:28 38.87907 -104.68585 7608 ft 118 kts 180°
2026-04-12 04:28 38.87085 -104.68599 7464 ft 119 kts 180°
2026-04-12 04:29 38.86247 -104.68590 7302 ft 121 kts 178°
2026-04-12 04:29 38.85408 -104.68565 7108 ft 121 kts 179°
2026-04-12 04:29 38.84600 -104.68576 6907 ft 112 kts 179°
2026-04-12 04:29 38.83845 -104.68572 6719 ft 107 kts 179°
2026-04-12 04:30 38.83128 -104.68594 6570 ft 98 kts 180°
2026-04-12 04:30 38.82456 -104.68588 6420 ft 93 kts 177°
2026-04-12 04:30 38.81789 -104.68569 6278 ft 97 kts 180°
2026-04-12 04:30 38.81177 -104.68578 6217 ft 84 kts 178°
2026-04-12 04:31 38.80654 -104.68585 6186 ft 64 kts 182°
2026-04-12 04:31 38.80208 -104.68585 6190 ft 76 kts 180°
2026-04-12 04:31 38.79601 -104.68564 6219 ft 96 kts 178°
2026-04-12 04:31 38.78941 -104.68512 6429 ft 90 kts 175°
2026-04-12 04:32 38.78295 -104.68493 6524 ft 98 kts 180°
2026-04-12 04:32 38.77617 -104.68549 6700 ft 97 kts 184°
2026-04-12 04:32 38.76956 -104.68626 6923 ft 94 kts 179°
2026-04-12 04:32 38.76294 -104.68600 7060 ft 97 kts 179°
2026-04-12 04:33 38.75631 -104.68707 7248 ft 96 kts 192°
2026-04-12 04:33 38.74972 -104.68804 7372 ft 94 kts 176°
2026-04-12 04:33 38.74322 -104.68749 7467 ft 94 kts 180°
2026-04-12 04:33 38.73686 -104.68761 7578 ft 90 kts 187°
2026-04-12 04:34 38.73071 -104.68845 7669 ft 89 kts 184°
2026-04-12 04:34 38.72488 -104.68704 7788 ft 90 kts 168°
2026-04-12 04:34 38.71934 -104.68271 7974 ft 91 kts 140°
2026-04-12 04:34 38.71702 -104.67468 8102 ft 102 kts 94°
2026-04-12 04:35 38.71961 -104.66639 8250 ft 104 kts 50°
2026-04-12 04:35 38.72467 -104.65976 8389 ft 104 kts 41°
2026-04-12 04:35 38.73010 -104.65352 8495 ft 106 kts 45°
2026-04-12 04:35 38.73532 -104.64683 8644 ft 105 kts 45°
2026-04-12 04:36 38.74037 -104.63988 8743 ft 109 kts 48°
2026-04-12 04:36 38.74553 -104.63301 8908 ft 105 kts 46°
2026-04-12 04:36 38.75085 -104.62623 8965 ft 113 kts 44°
2026-04-12 04:36 38.75665 -104.61896 9005 ft 121 kts 46°
2026-04-12 04:37 38.76279 -104.61104 9010 ft 128 kts 46°
2026-04-12 04:37 38.76906 -104.60275 9069 ft 130 kts 47°
2026-04-12 04:37 38.77529 -104.59418 9106 ft 134 kts 49°
2026-04-12 04:37 38.78177 -104.58529 9068 ft 140 kts 49°
2026-04-12 04:38 38.78856 -104.57583 8992 ft 145 kts 49°
2026-04-12 04:38 38.79514 -104.56611 8975 ft 145 kts 51°
2026-04-12 04:38 38.80122 -104.55598 8953 ft 145 kts 56°
2026-04-12 04:38 38.80711 -104.54552 8945 ft 144 kts 58°
2026-04-12 04:39 38.81299 -104.53507 8915 ft 145 kts 53°
2026-04-12 04:39 38.81964 -104.52529 8937 ft 145 kts 47°
2026-04-12 04:39 38.82664 -104.51620 8976 ft 141 kts 44°
2026-04-12 04:39 38.83388 -104.50760 8965 ft 143 kts 43°
2026-04-12 04:40 38.84105 -104.49911 8989 ft 140 kts 43°
2026-04-12 04:40 38.84807 -104.49049 8994 ft 139 kts 45°
2026-04-12 04:40 38.85479 -104.48154 9012 ft 139 kts 47°
2026-04-12 04:40 38.86139 -104.47276 9004 ft 140 kts 47°
2026-04-12 04:41 38.86797 -104.46370 9035 ft 137 kts 48°
2026-04-12 04:41 38.87455 -104.45477 9037 ft 137 kts 48°
2026-04-12 04:41 38.88121 -104.44596 9049 ft 138 kts 47°
2026-04-12 04:41 38.88803 -104.43715 9065 ft 138 kts 45°
2026-04-12 04:42 38.89485 -104.42848 9101 ft 138 kts 44°
2026-04-12 04:42 38.90183 -104.41986 9108 ft 141 kts 44°
2026-04-12 04:42 38.90875 -104.41101 9130 ft 140 kts 44°
2026-04-12 04:43 38.92671 -104.40612 9077 ft 135 kts 343°
2026-04-12 04:43 38.93584 -104.40883 9075 ft 134 kts 335°
2026-04-12 04:43 38.94455 -104.41283 9096 ft 131 kts 327°
2026-04-12 04:43 38.95265 -104.41814 9057 ft 132 kts 323°
2026-04-12 04:44 38.96067 -104.42412 9017 ft 133 kts 321°
2026-04-12 04:44 38.96854 -104.43022 9004 ft 133 kts 323°
2026-04-12 04:44 38.97673 -104.43565 9041 ft 131 kts 329°
2026-04-12 04:44 38.98506 -104.44002 9055 ft 133 kts 334°
2026-04-12 04:45 38.99323 -104.44515 9021 ft 133 kts 322°
2026-04-12 04:45 39.00129 -104.45094 9040 ft 131 kts 323°
2026-04-12 04:45 39.00915 -104.45675 9027 ft 132 kts 324°
2026-04-12 04:45 39.01745 -104.46176 9023 ft 130 kts 328°
2026-04-12 04:46 39.02558 -104.46693 9012 ft 131 kts 326°
2026-04-12 04:46 39.03354 -104.47247 9043 ft 128 kts 323°
2026-04-12 04:46 39.04119 -104.47819 9066 ft 124 kts 316°
2026-04-12 04:46 39.04676 -104.48615 9007 ft 117 kts 288°
2026-04-12 04:47 39.04867 -104.49558 9010 ft 106 kts 262°
2026-04-12 04:47 39.04825 -104.50489 9020 ft 104 kts 259°
2026-04-12 04:47 39.04774 -104.51430 9021 ft 107 kts 260°
2026-04-12 04:47 39.04702 -104.52378 9062 ft 107 kts 257°
2026-04-12 04:48 39.04621 -104.53334 9095 ft 106 kts 257°
2026-04-12 04:48 39.04541 -104.54278 9115 ft 107 kts 257°
2026-04-12 04:48 39.04451 -104.55227 9143 ft 106 kts 257°
2026-04-12 04:48 39.04362 -104.56186 9115 ft 109 kts 258°
2026-04-12 04:49 39.04274 -104.57156 9142 ft 108 kts 257°
2026-04-12 04:49 39.04189 -104.58102 9152 ft 109 kts 258°
2026-04-12 04:49 39.04122 -104.59093 9106 ft 113 kts 261°
2026-04-12 04:49 39.04070 -104.60102 9089 ft 113 kts 259°
2026-04-12 04:50 39.03995 -104.61107 9082 ft 113 kts 261°
2026-04-12 04:50 39.03952 -104.62110 9107 ft 113 kts 264°
2026-04-12 04:50 39.03930 -104.63108 9125 ft 110 kts 258°
2026-04-12 04:50 39.03840 -104.64080 9133 ft 110 kts 257°
2026-04-12 04:51 39.03751 -104.65070 9075 ft 113 kts 257°
2026-04-12 04:51 39.03655 -104.66070 9056 ft 112 kts 257°
2026-04-12 04:51 39.03464 -104.67006 9040 ft 108 kts 240°
2026-04-12 04:51 39.03024 -104.67762 9082 ft 105 kts 224°
2026-04-12 04:52 39.02422 -104.68296 9104 ft 107 kts 208°
2026-04-12 04:52 39.01711 -104.68583 9119 ft 108 kts 193°
2026-04-12 04:52 39.00944 -104.68583 9101 ft 111 kts 184°
2026-04-12 04:52 39.00165 -104.68571 9040 ft 115 kts 187°
2026-04-12 04:53 38.99365 -104.68557 9014 ft 114 kts 182°
2026-04-12 04:53 38.98568 -104.68517 8922 ft 116 kts 184°
2026-04-12 04:53 38.96951 -104.68524 8711 ft 118 kts 184°
2026-04-12 04:54 38.96167 -104.68491 8723 ft 111 kts 183°
2026-04-12 04:54 38.95412 -104.68478 8738 ft 106 kts 184°
2026-04-12 04:54 38.94678 -104.68466 8734 ft 104 kts 184°
2026-04-12 04:54 38.93957 -104.68476 8724 ft 105 kts 187°
2026-04-12 04:55 38.93212 -104.68531 8611 ft 108 kts 187°
2026-04-12 04:55 38.92457 -104.68550 8460 ft 109 kts 184°
2026-04-12 04:55 38.91691 -104.68544 8291 ft 111 kts 184°
2026-04-12 04:55 38.90914 -104.68549 8149 ft 111 kts 183°
2026-04-12 04:56 38.90164 -104.68551 7984 ft 108 kts 182°
2026-04-12 04:56 38.89400 -104.68563 7834 ft 112 kts 182°
2026-04-12 04:56 38.88616 -104.68603 7687 ft 115 kts 182°
2026-04-12 04:56 38.87812 -104.68624 7578 ft 113 kts 179°
2026-04-12 04:57 38.87027 -104.68628 7413 ft 111 kts 178°
2026-04-12 04:57 38.86278 -104.68604 7264 ft 105 kts 176°
2026-04-12 04:57 38.85563 -104.68576 7128 ft 101 kts 177°
2026-04-12 04:57 38.84866 -104.68578 6960 ft 100 kts 178°
2026-04-12 04:58 38.84175 -104.68576 6796 ft 99 kts 178°
2026-04-12 04:58 38.83513 -104.68588 6649 ft 94 kts 179°
2026-04-12 04:58 38.82889 -104.68585 6490 ft 89 kts 178°
2026-04-12 04:58 38.82258 -104.68576 6374 ft 92 kts 178°
2026-04-12 04:59 38.81624 -104.68577 6249 ft 92 kts 180°
2026-04-12 04:59 38.81036 -104.68576 6186 ft 74 kts 180°
2026-04-12 04:59 38.80586 -104.68575 6187 ft 57 kts 181°
2026-04-12 04:59 38.80243 -104.68579 6190 ft 42 kts 179°